User: anonymous   Login
Location: Unspecified
(0.0000°N, 0.0000°E)
Time: 21:56:19
(UTC+00:00)
Language:

STARLINK-32329 - Orbit

View from above orbital plane
View from above orbital plane
View from above satellite
View from above satellite

Ground track
Ground track

The orbit is defined by the following mean orbital elements,

1 62736U          26145.16171181 +.00000000 +00000-0 +62023-3 0 00007
2 62736  42.9986  82.4350 0001845 255.1548 104.9099 15.27592596    07
Epoch (UTC): 25 May 2026 03:52:51
Eccentricity: 0.0001845
inclination: 42.9986°
perigee height: 482 km
apogee height: 484 km
right ascension of ascending node: 82.4350°
argument of perigee: 255.1548°
revolutions per day: 15.27592596
mean anomaly at epoch: 104.9099°

The dashed part of the orbit path shows where the satellite is in the earth's shadow,  

DLR